• In Czech Republic
  • List of Countries
  • For 7 days
  • Water Temperature
  • Satellite Maps
  • Weather Map
  • Weather Widgets
  • user-avatar
    Login

    Hourly Weather Ad-Dauha

    Today, 23 February, Friday

    Time Temperature Precipitation Wind Pressure Humidity
    00:00 +22°C° 0 mm 3 mps 756 mmHg 62%
    01:00 +22°C° 0 mm 3 mps 756 mmHg 62%
    02:00 +21°C° 0 mm 2 mps 756 mmHg 62%
    03:00 +21°C° 0 mm 2 mps 756 mmHg 62%
    04:00 +21°C° 0 mm 2 mps 756 mmHg 62%
    05:00 +21°C° 0 mm 2 mps 756 mmHg 62%
    06:00 +22°C° 0 mm 1 mps 756 mmHg 63%
    07:00 +23°C° 0 mm 2 mps 757 mmHg 57%
    08:00 +24°C° 0 mm 2 mps 757 mmHg 50%
    09:00 +26°C° 0 mm 2 mps 757 mmHg 44%
    10:00 +27°C° 0 mm 2 mps 757 mmHg 41%
    11:00 +28°C° 0 mm 3 mps 756 mmHg 38%
    12:00 +29°C° 0 mm 3 mps 756 mmHg 35%
    13:00 +29°C° 0 mm 4 mps 756 mmHg 35%
    14:00 +29°C° 0 mm 4 mps 756 mmHg 36%
    15:00 +29°C° 0 mm 4 mps 756 mmHg 36%
    16:00 +28°C° 0 mm 5 mps 756 mmHg 40%
    17:00 +27°C° 0 mm 5 mps 756 mmHg 43%
    18:00 +26°C° 0 mm 5 mps 756 mmHg 47%
    19:00 +25°C° 0 mm 5 mps 756 mmHg 50%
    20:00 +25°C° 0 mm 4 mps 756 mmHg 52%
    21:00 +23°C° 0 mm 4 mps 756 mmHg 55%
    22:00 +23°C° 0 mm 4 mps 756 mmHg 54%
    23:00 +24°C° 0 mm 3 mps 756 mmHg 54%

    Tomorrow, 24 February, Saturday

    Time Temperature Precipitation Wind Pressure Humidity
    00:00 +24°C° 0 mm 3 mps 756 mmHg 53%
    01:00 +24°C° 0 mm 3 mps 755 mmHg 54%
    02:00 +24°C° 0 mm 2 mps 755 mmHg 55%
    03:00 +24°C° 0 mm 2 mps 755 mmHg 56%
    04:00 +24°C° 0 mm 2 mps 756 mmHg 57%
    05:00 +24°C° 0 mm 2 mps 756 mmHg 58%
    06:00 +24°C° 0 mm 2 mps 756 mmHg 58%
    07:00 +24°C° 0 mm 2 mps 757 mmHg 56%
    08:00 +25°C° 0 mm 3 mps 757 mmHg 54%
    09:00 +25°C° 0 mm 3 mps 757 mmHg 52%
    10:00 +26°C° 0.1 mm 3 mps 757 mmHg 51%
    11:00 +26°C° 0.1 mm 3 mps 756 mmHg 50%
    12:00 +27°C° 0.1 mm 4 mps 756 mmHg 48%
    13:00 +27°C° 0.1 mm 3 mps 756 mmHg 49%
    14:00 +27°C° 0.1 mm 3 mps 755 mmHg 50%
    15:00 +27°C° 0.1 mm 3 mps 755 mmHg 51%
    16:00 +26°C° 0 mm 4 mps 755 mmHg 53%
    17:00 +25°C° 0 mm 5 mps 756 mmHg 55%
    18:00 +23°C° 0 mm 6 mps 756 mmHg 58%
    19:00 +23°C° 0 mm 6 mps 756 mmHg 60%
    20:00 +22°C° 0 mm 6 mps 756 mmHg 63%
    21:00 +22°C° 0 mm 7 mps 757 mmHg 66%
    22:00 +21°C° 1 mm 6 mps 757 mmHg 71%
    23:00 +21°C° 1 mm 6 mps 757 mmHg 75%

    Day after tomorrow, 25 February, Sunday

    Time Temperature Precipitation Wind Pressure Humidity
    00:00 +20°C° 1 mm 5 mps 757 mmHg 80%
    01:00 +20°C° 3.7 mm 5 mps 757 mmHg 81%
    02:00 +20°C° 3.7 mm 4 mps 757 mmHg 82%
    03:00 +19°C° 3.7 mm 3 mps 757 mmHg 83%
    04:00 +20°C° 0.7 mm 3 mps 757 mmHg 83%
    05:00 +20°C° 0.7 mm 4 mps 757 mmHg 82%
    06:00 +20°C° 0.7 mm 4 mps 757 mmHg 82%
    07:00 +20°C° 0 mm 4 mps 757 mmHg 79%
    08:00 +21°C° 0 mm 4 mps 757 mmHg 76%
    09:00 +21°C° 0 mm 5 mps 758 mmHg 74%
    10:00 +22°C° 0.1 mm 4 mps 758 mmHg 69%
    11:00 +23°C° 0.1 mm 4 mps 757 mmHg 64%
    12:00 +25°C° 0.1 mm 4 mps 757 mmHg 60%
    13:00 +26°C° 0.1 mm 4 mps 757 mmHg 57%
    14:00 +26°C° 0.1 mm 4 mps 756 mmHg 54%
    15:00 +27°C° 0.1 mm 4 mps 756 mmHg 51%
    16:00 +27°C° 0.1 mm 4 mps 756 mmHg 52%
    17:00 +26°C° 0.1 mm 3 mps 757 mmHg 53%
    18:00 +26°C° 0.1 mm 3 mps 757 mmHg 55%
    19:00 +25°C° 0 mm 3 mps 758 mmHg 58%
    20:00 +24°C° 0 mm 3 mps 758 mmHg 62%
    21:00 +23°C° 0 mm 4 mps 758 mmHg 65%
    22:00 +22°C° 0 mm 4 mps 758 mmHg 68%
    23:00 +22°C° 0 mm 4 mps 758 mmHg 71%

    26 February, Monday

    Time Temperature Precipitation Wind Pressure Humidity
    00:00 +21°C° 0 mm 4 mps 758 mmHg 74%
    01:00 +21°C° 0 mm 4 mps 758 mmHg 75%
    02:00 +21°C° 0 mm 3 mps 758 mmHg 75%
    03:00 +20°C° 0 mm 3 mps 758 mmHg 76%
    04:00 +20°C° 0 mm 3 mps 758 mmHg 77%
    05:00 +20°C° 0 mm 3 mps 759 mmHg 77%
    06:00 +20°C° 0 mm 3 mps 759 mmHg 77%
    07:00 +21°C° 0 mm 3 mps 759 mmHg 72%
    08:00 +22°C° 0 mm 3 mps 760 mmHg 66%
    09:00 +24°C° 0 mm 3 mps 760 mmHg 60%
    10:00 +25°C° 0 mm 2 mps 760 mmHg 56%
    11:00 +25°C° 0 mm 2 mps 759 mmHg 51%
    12:00 +26°C° 0 mm 2 mps 759 mmHg 46%
    13:00 +26°C° 0 mm 2 mps 758 mmHg 45%
    14:00 +27°C° 0 mm 2 mps 758 mmHg 44%
    15:00 +27°C° 0 mm 3 mps 757 mmHg 43%
    16:00 +26°C° 0 mm 3 mps 757 mmHg 46%
    17:00 +25°C° 0 mm 3 mps 757 mmHg 49%
    18:00 +25°C° 0 mm 3 mps 758 mmHg 52%
    19:00 +24°C° 0 mm 3 mps 758 mmHg 54%
    20:00 +24°C° 0 mm 3 mps 759 mmHg 56%
    21:00 +22°C° 0 mm 3 mps 759 mmHg 59%
    22:00 +22°C° 0 mm 3 mps 759 mmHg 59%
    23:00 +22°C° 0 mm 3 mps 759 mmHg 60%

    27 February, Tuesday

    Time Temperature Precipitation Wind Pressure Humidity
    00:00 +22°C° 0 mm 4 mps 758 mmHg 60%
    01:00 +22°C° 0 mm 4 mps 758 mmHg 60%
    02:00 +22°C° 0 mm 5 mps 757 mmHg 61%
    03:00 +21°C° 0 mm 5 mps 757 mmHg 61%
    04:00 +21°C° 0 mm 5 mps 757 mmHg 61%
    05:00 +21°C° 0 mm 5 mps 757 mmHg 61%
    06:00 +21°C° 0 mm 5 mps 757 mmHg 61%
    07:00 +22°C° 0 mm 5 mps 758 mmHg 56%
    08:00 +23°C° 0 mm 5 mps 758 mmHg 51%
    09:00 +25°C° 0 mm 5 mps 759 mmHg 46%
    10:00 +26°C° 0 mm 5 mps 759 mmHg 44%
    11:00 +27°C° 0 mm 5 mps 758 mmHg 41%
    12:00 +27°C° 0 mm 5 mps 758 mmHg 39%
    13:00 +27°C° 0.1 mm 5 mps 757 mmHg 40%
    14:00 +27°C° 0.1 mm 5 mps 757 mmHg 41%
    15:00 +27°C° 0.1 mm 4 mps 757 mmHg 42%
    16:00 +26°C° 0.1 mm 5 mps 757 mmHg 48%
    17:00 +25°C° 0.1 mm 5 mps 757 mmHg 53%
    18:00 +23°C° 0.1 mm 5 mps 757 mmHg 59%
    19:00 +23°C° 0.1 mm 5 mps 757 mmHg 59%
    20:00 +23°C° 0.1 mm 5 mps 757 mmHg 60%
    21:00 +23°C° 0.1 mm 5 mps 758 mmHg 60%
    22:00 +23°C° 0 mm 5 mps 757 mmHg 59%
    23:00 +23°C° 0 mm 6 mps 757 mmHg 59%

    28 February, Wednesday

    Time Temperature Precipitation Wind Pressure Humidity
    00:00 +23°C° 0 mm 6 mps 757 mmHg 58%
    01:00 +22°C° 0 mm 5 mps 756 mmHg 59%
    02:00 +22°C° 0 mm 5 mps 756 mmHg 60%
    03:00 +22°C° 0 mm 4 mps 756 mmHg 61%
    04:00 +22°C° 0 mm 4 mps 756 mmHg 62%
    05:00 +22°C° 0 mm 4 mps 757 mmHg 63%
    06:00 +22°C° 0 mm 4 mps 757 mmHg 64%
    07:00 +23°C° 0.1 mm 5 mps 757 mmHg 60%
    08:00 +25°C° 0.1 mm 5 mps 758 mmHg 56%
    09:00 +26°C° 0.1 mm 5 mps 758 mmHg 53%
    10:00 +26°C° 0.3 mm 5 mps 758 mmHg 51%
    11:00 +27°C° 0.3 mm 5 mps 757 mmHg 49%
    12:00 +27°C° 0.3 mm 4 mps 757 mmHg 47%
    13:00 +28°C° 0.2 mm 5 mps 756 mmHg 46%
    14:00 +28°C° 0.2 mm 5 mps 756 mmHg 46%
    15:00 +28°C° 0.2 mm 5 mps 756 mmHg 46%
    16:00 +27°C° 0 mm 5 mps 756 mmHg 49%
    17:00 +27°C° 0 mm 5 mps 756 mmHg 53%
    18:00 +26°C° 0 mm 5 mps 756 mmHg 56%
    19:00 +26°C° 0 mm 6 mps 756 mmHg 59%
    20:00 +24°C° 0 mm 6 mps 756 mmHg 61%
    21:00 +24°C° 0 mm 6 mps 756 mmHg 64%
    22:00 +24°C° 0.1 mm 6 mps 756 mmHg 65%
    23:00 +25°C° 0.1 mm 5 mps 755 mmHg 66%
    Show more